Content
SEND FEEDBACK

Daily
Averages
Monthly
Summary
United States of America

ST. LOUIS - SAINT LOUIS UNIVERSITY, MISSOURI


Home > North America > United States > Missouri
Elevation: 177 meters     Latitude: 38 38N     Longitude: 090 14W

WEATHER
 
SELECT A DAY
Number of Records: 189,013;   Date Range: 1/1/95 - 10/18/14
 
SHARE

PRINT THIS DATA

[ ← Previous Day ]
WEATHER ALMANAC - 22 FEBRUARY, 2013
[ Next Day → ]
[ °F ]   °C
Weather ElementAverageHighLow
Temperature0.6 °C2.2 °C (8:53 am)-3.9 °C (9:53 pm)
Dewpoint-3.1 °C0 °C (3:53 am)-8.3 °C (11:53 pm)
Humidity77.5 %96 % (12:53 am)61 % (4:53 pm)
Barometer1013.9 hPa1019.3 hPa (9:53 pm)1009.8 hPa (1:41 am)
Wind Speed9.2 km/h22.2 km/h (1:53 pm)
Wind Gust31.5 km/h (11:53 am)
Weather ElementAverage
Visibility13.8 km
Wind DirectionS (181.1 °)

Weather ElementTotal
Precipitation1.02 mm
Heating Degree Days19.2 (Base 18.3)
Averaged from 37 records on 22 February, 2013
WEATHER CONDITIONS BREAKOUT
WIND DIRECTION BREAKOUT
WEATHER BY HOUR - 22 FEBRUARY, 2013
[ °F ]   °C
Local TimeTemperatureDewpointHumidityBarometerVisibilityWind DirectionWind SpeedGust SpeedPrecipitationEventsConditions
12:53 AM0 °C-0.6 °C96 %1010.8 hPa4 kmCalmOvercast
1:09 AM0 °C-1 °C93 %1010.5 hPa2.9 kmCalm0.25 mmSnowLight Snow
1:41 AM0 °C-1 °C93 %1009.8 hPa4 kmCalm0.25 mmOvercast
1:51 AM0 °C-1 °C93 %1009.8 hPa4.8 kmCalm0.25 mmOvercast
1:53 AM0 °C-0.6 °C96 %1010.2 hPa6.4 kmCalm0.25 mmOvercast
2:53 AM0.6 °C-0.6 °C92 %1010.2 hPa8 kmCalmOvercast
3:53 AM0.6 °C0 °C96 %1010.2 hPa9.7 kmCalmOvercast
4:20 AM1 °C-1 °C87 %1009.8 hPa8 kmCalmOvercast
4:53 AM0.6 °C-0.6 °C92 %1010.8 hPa11.3 kmCalmOvercast
5:27 AM1 °C-1 °C87 %1010.8 hPa16.1 kmSW (230°)7.4 km/hOvercast
5:53 AM1.7 °C-0.6 °C85 %1011.2 hPa16.1 kmSSW (210°)11.1 km/hOvercast
6:13 AM2 °C-1 °C81 %1010.8 hPa16.1 kmSW (220°)9.3 km/hOvercast
6:53 AM1.7 °C-0.6 °C85 %1012.2 hPa16.1 kmSW (220°)13 km/hOvercast
7:53 AM1.7 °C-1.1 °C82 %1012.9 hPa16.1 kmSSW (210°)9.3 km/hOvercast
8:01 AM2 °C-1 °C81 %1012.5 hPa16.1 kmSW (220°)9.3 km/hOvercast
8:53 AM2.2 °C-0.6 °C82 %1013.2 hPa16.1 kmSW (220°)5.6 km/hOvercast
9:51 AM2 °C-1 °C81 %1013.5 hPa16.1 kmSSW (210°)11.1 km/hOvercast
9:53 AM2.2 °C-0.6 °C82 %1013.9 hPa16.1 kmSW (220°)9.3 km/hOvercast
10:53 AM2.2 °C-2.2 °C73 %1014.6 hPa16.1 kmWSW (240°)20.4 km/h29.6 km/hOvercast
11:17 AM2 °C-3 °C70 %1014.6 hPa16.1 kmSW (230°)13 km/hOvercast
11:37 AM2 °C-3 °C70 %1014.6 hPa16.1 kmWest (260°)14.8 km/hOvercast
11:53 AM1.7 °C-3.9 °C67 %1015.2 hPa16.1 kmWSW (250°)14.8 km/h31.5 km/hOvercast
12:53 PM1.1 °C-3.3 °C73 %1015.6 hPa16.1 kmWest (260°)20.4 km/h29.6 km/hOvercast
1:48 PM1 °C-4 °C70 %1015.2 hPa16.1 kmWest (260°)16.7 km/hOvercast
1:53 PM1.1 °C-3.9 °C70 %1015.6 hPa16.1 kmWest (260°)22.2 km/hOvercast
2:09 PM1 °C-4 °C70 %1015.6 hPa16.1 kmWest (260°)18.5 km/h27.8 km/hOvercast
2:53 PM1.1 °C-5 °C64 %1015.9 hPa16.1 kmWest (260°)14.8 km/hOvercast
3:00 PM1 °C-5 °C65 %1015.9 hPa16.1 kmWest (260°)16.7 km/hOvercast
3:53 PM0.6 °C-5.6 °C64 %1016.3 hPa16.1 kmWSW (240°)16.7 km/hOvercast
4:53 PM0.6 °C-6.1 °C61 %1016.3 hPa16.1 kmWest (260°)18.5 km/hPartly Cloudy
5:53 PM0.6 °C-6.1 °C61 %1016.9 hPa16.1 kmWest (270°)9.3 km/hClear
6:53 PM-0.6 °C-6.7 °C64 %1017.6 hPa16.1 kmWNW (290°)9.3 km/hClear
7:53 PM-1.1 °C-7.2 °C64 %1017.9 hPa16.1 kmCalmClear
8:53 PM-1.7 °C-7.8 °C64 %1018.6 hPa16.1 kmWest (280°)5.6 km/hClear
9:53 PM-3.9 °C-7.8 °C75 %1019.3 hPa16.1 kmNW (320°)11.1 km/hClear
10:53 PM-3.3 °C-7.8 °C71 %1019.3 hPa16.1 kmWest (270°)7.4 km/hClear
11:53 PM-3.3 °C-8.3 °C69 %1019 hPa16.1 kmWest (270°)5.6 km/hClear
Hourly data recorded from KCPS, located 0 kilometers away from St. Louis - Saint Louis University, Missouri







STORIES FROM OUR PARTNERS